Regional Weather Roundup
Issued by NWS Cleveland, OH

Home | Current Version | Previous Version | Graphics & Text | Print | Product List | Glossary On
Versions: 1 2 3 4 5 6 7 8 9 10 11 12 13 14 15 16 17 18 19 20 21 22 23 24 25 26 27 28 29 30 31 32 33 34 35 36 37 38 39 40 41 42 43 44 45 46 47 48 49 50
000
ASUS41 KCLE 182002
RWRCLE
OHIO REGIONAL WEATHER ROUNDUP
NATIONAL WEATHER SERVICE CLEVELAND, OH
400 PM EDT SAT APR 18 2015

NOTE: "FAIR" INDICATES FEW OR NO CLOUDS BELOW 12,000 FEET WITH NO
SIGNIFICANT WEATHER AND/OR OBSTRUCTIONS TO VISIBILITY.

OHZ001>008-015>018-024>027-034-035-043-044-182100-
   NORTHWEST OHIO

CITY           SKY/WX    TMP DP  RH WIND       PRES   REMARKS
DEFIANCE       CLOUDY    77  45  32 NE3       30.02F
FINDLAY        CLOUDY    74  48  39 NE20      30.03S
TOLEDO EXPRESS CLOUDY    66  40  38 E18G25    30.07R
TOLEDO EXEC    PTSUNNY   63  36  36 E16G25    30.10S
LIMA           CLOUDY    78  48  34 VRB3      30.02F
$$

OHZ009>014-019>023-028>033-038-089-182100-
   NORTHEAST OHIO

CITY           SKY/WX    TMP DP  RH WIND       PRES   REMARKS
CLE-HOPKINS    PTSUNNY   66  38  35 N14       30.11R
CLE-LAKEFRONT  SUNNY     56  45  66 NW5       30.09R
CUY CO. ARPT   PTSUNNY   64  39  39 N14       30.09R
LORAIN-ELYRIA  MOSUNNY   65  42  43 NE13      30.09R
ASHTABULA      SUNNY     68  42  38 VRB7      30.07S
AKRON-CANTON   MOSUNNY   74  44  34 N12       30.06R
WOOSTER        PTSUNNY   72  47  40 N13       30.06S
MANSFIELD      CLOUDY    72  45  37 N13       30.05F
YOUNGSTOWN     PTSUNNY   73  44  35 N13       30.04S
$$

OHZ042-051>053-060>062-070>072-077>081-182100-
  SOUTHWEST OHIO

CITY           SKY/WX    TMP DP  RH WIND       PRES   REMARKS
CINC-COVINGTON PTSUNNY   78  46  32 E14       30.01F
CINC-LUNKEN    PTSUNNY   77  49  37 E9        30.00F
HAMILTON       PTSUNNY   78  49  35 MISG      30.02F
DAYTON         PTSUNNY   78  49  35 NE6       30.03F
WRIGHT-PAT AFB PTSUNNY   77  46  34 VRB5      30.01F
DAYTON GENERAL PTSUNNY   75  49  39 NE6       30.01F
WILMINGTON     PTSUNNY   74  45  35 E8        30.02S
$$

OHZ036-037-039>041-045>050-054>059-063>069-073>076-082>088-182100-
  CENTRAL AND SOUTHEAST OHIO

CITY           SKY/WX    TMP DP  RH WIND       PRES   REMARKS
COLUMBUS       CLOUDY    78  44  29 NE9       30.00F
OSU AIRPORT    CLOUDY    77  45  32 NE5       30.01F
BOLTON FIELD   NOT AVBL
RICKENBACK AFB NOT AVBL
NEWARK         CLOUDY    79  44  28 VRB7      30.00F
MARION         CLOUDY    74  47  38 NE14      30.03F
LANCASTER      CLOUDY    78  43  28 VRB3      30.01F
ZANESVILLE     CLOUDY    76  40  27 VRB6      30.01F
NEW PHILLY     PTSUNNY   78  43  28 N7        30.03S
$$


USA.gov is the U.S. government's official web portal to all federal, state and local government web resources and services.